Location: Kutna Hora
(49.9500°N, 15.2670°E)
Time: 01:05:37
(UTC+02:00)

ISS - Visible Passes

Search period start: 06 May 2021 00:00
Search period end: 16 May 2021 00:00
Orbit: 418 x 421 km, 51.6° (Epoch: 05 May)

Date Brightness Start Highest point End Pass type
(mag) Time Alt. Az. Time Alt. Az. Time Alt. Az.
06 May -3.7 02:48:19 61° SSE 02:48:19 61° SSE 02:51:36 10° ENE visible
06 May -3.4 04:21:44 10° W 04:25:06 64° N 04:28:28 10° ENE visible
07 May -2.0 02:02:24 25° E 02:02:24 25° E 02:04:07 10° ENE visible
07 May -3.5 03:35:20 19° W 03:37:37 70° N 03:41:01 10° ENE visible
08 May -0.9 01:16:27 11° E 01:16:27 11° E 01:16:34 10° E visible
08 May -3.8 02:49:24 50° W 02:50:10 82° NNW 02:53:34 10° ENE visible
08 May -3.3 04:23:46 10° WNW 04:27:08 66° N 04:30:31 10° E visible
09 May -3.2 02:03:25 53° E 02:03:25 53° E 02:06:06 10° ENE visible
09 May -3.3 03:36:21 10° W 03:39:39 63° N 03:43:01 10° E visible
10 May -1.7 01:17:25 20° E 01:17:25 20° E 01:18:39 10° ENE visible
10 May -3.4 02:50:21 25° W 02:52:10 64° N 02:55:32 10° E visible
10 May -3.7 04:25:44 10° WNW 04:29:08 87° N 04:32:32 10° ESE visible
11 May -3.6 02:04:19 62° NW 02:04:41 70° N 02:08:04 10° ENE visible
11 May -3.6 03:38:17 10° WNW 03:41:40 74° N 03:45:03 10° E visible
12 May -2.8 01:18:13 42° ENE 01:18:13 42° ENE 01:20:36 10° ENE visible
12 May -3.4 02:51:09 12° WNW 02:54:11 66° N 02:57:34 10° E visible
12 May -3.6 04:27:42 10° WNW 04:31:00 54° SSW 04:34:19 10° SE visible
13 May -1.6 00:32:03 19° ENE 00:32:03 19° ENE 00:33:09 10° ENE visible
13 May -3.3 02:04:58 26° WNW 02:06:41 63° N 02:10:03 10° E visible
13 May -3.9 03:40:13 10° WNW 03:43:36 74° SSW 03:46:58 10° ESE visible
13 May -1.0 23:45:41 10° ENE 23:45:41 10° ENE 23:45:41 10° ENE visible
14 May -3.4 01:18:34 50° WNW 01:19:11 64° N 01:22:34 10° E visible
14 May -3.8 02:52:46 10° WNW 02:56:08 87° N 02:59:32 10° ESE visible
14 May -2.7 04:29:48 10° W 04:32:43 27° SW 04:35:37 10° SSE visible
14 May -3.5 22:51:43 10° SW 22:54:56 44° SSE 22:58:10 10° ENE visible
15 May -3.5 00:28:19 10° W 00:31:41 70° N 00:35:04 10° ENE visible
15 May -3.6 02:05:18 10° WNW 02:08:41 74° NNE 02:12:04 10° E visible
15 May -3.3 03:42:12 10° W 03:45:23 38° SSW 03:48:33 10° SE visible
15 May -3.0 22:04:33 10° SSW 22:07:35 31° SSE 22:10:37 10° E visible
15 May -3.8 23:40:49 10° WSW 23:44:12 81° NNW 23:47:35 10° ENE visible
